User: anonymous   Login
Location: The Jewett Observatory
(46.7288°N, 117.1525°W)
Time: 16:34:33
(UTC-08:00)
Language:

Cosmos 1633 - Orbit

View from above orbital plane
View from above orbital plane
View from above satellite
View from above satellite

Ground track
Ground track

The orbit data is extracted from the following two-line orbital elements,

1 15592U 85020A   14351.56137418  .00012889  00000-0  57533-3 0  6245
2 15592 082.5382 149.9939 0016931 148.3479 283.7235 15.21123280625134
Epoch (UTC): 17 December 2014 13:28:22
Eccentricity: 0.0016931
inclination: 82.5382°
perigee height: 491 km
apogee height: 514 km
right ascension of ascending node: 149.9939°
argument of perigee: 148.3479°
revolutions per day: 15.21123280
mean anomaly at epoch: 283.7235°
orbit number at epoch: 62513

The dashed part of the orbit path shows where the satellite is in the earth's shadow,  

DLR